W7SF Weather Reports


Display with metric or nautical units.
time (UTC)temp
F
wind
direction
speed
MPH
gust
MPH
rain 1hr
in
rain 24hr
in
rain mn
in
humidity
%
barometer
mb
20260504191748 78 176 7.0 22.0 0.00 0.03 0.03 54 1003.4
20260504191741 77 243 7.0 22.0 0.00 0.03 0.03 57 1003.5
20260504190749 77 196 8.0 21.0 0.00 0.03 0.03 54 1003.5
20260504190248 77 169 6.0 18.0 0.00 0.03 0.03 53 1003.7
20260504185749 78 221 11.0 18.0 0.00 0.03 0.03 54 1003.7
20260504185248 78 281 8.0 17.0 0.00 0.03 0.03 51 1003.8
20260504185015 78 303 8.0 17.0 0.00 0.03 0.03 55 1003.9
20260504184249 78 235 9.0 17.0 0.00 0.03 0.03 53 1003.9
20260504183749 77 191 4.0 19.0 0.00 0.03 0.03 54 1003.8
20260504183248 78 211 14.0 23.0 0.00 0.03 0.03 53 1003.8
20260504182748 78 200 9.0 23.0 0.00 0.03 0.03 58 1004.1
20260504182249 78 222 9.0 18.0 0.00 0.03 0.03 55 1003.9
20260504181747 77 247 4.0 14.0 0.00 0.03 0.03 57 1003.9
20260504181247 76 188 6.0 14.0 0.00 0.03 0.03 60 1004.1
20260504180748 75 176 5.0 14.0 0.00 0.03 0.03 57 1004.3
20260504180247 76 209 8.0 19.0 0.00 0.03 0.03 57 1004.1
20260504175747 75 225 8.0 19.0 0.00 0.03 0.03 57 1004.4
20260504175248 76 143 8.0 21.0 0.00 0.03 0.03 55 1004.4
20260504174748 75 180 4.0 21.0 0.00 0.03 0.03 58 1004.4
20260504174513 75 249 9.0 17.0 0.00 0.03 0.03 56 1004.5
20260504174004 76 232 11.0 21.0 0.00 0.03 0.03 58 1004.6
20260504173248 76 180 8.0 21.0 0.00 0.03 0.03 56 1004.3
20260504172748 75 176 5.0 18.0 0.00 0.03 0.03 59 1004.3
20260504172507 75 256 3.0 18.0 0.00 0.03 0.03 59 1004.4
20260504171748 74 252 9.0 18.0 0.00 0.03 0.03 58 1004.6
20260504171248 74 245 5.0 18.0 0.00 0.03 0.03 60 1004.9
20260504171011 73 172 10.0 18.0 0.00 0.03 0.03 60 1005.0
20260504170248 73 291 8.0 15.0 0.00 0.03 0.03 59 1004.6
20260504160246 69 256 2.0 22.0 0.00 0.03 0.03 63 1005.0
20260504150749 64 288 3.0 8.0 0.00 0.03 0.03 76 1005.3
20260504150249 63 226 2.0 7.0 0.00 0.03 0.03 76 1005.2
20260504141234 62 229 8.0 14.0 0.00 0.03 0.03 83 1005.7
20260504140733 60 169 6.0 15.0 0.00 0.03 0.03 83 1005.9
20260504140233 59 161 8.0 15.0 0.00 0.03 0.03 84 1006.0
20260504130717 57 211 4.0 8.0 0.03 0.03 0.03 88 1006.8
20260504130217 57 227 4.0 7.0 0.03 0.03 0.03 87 1006.8
20260504120204 56 193 5.0 7.0 0.00 0.00 0.00 85 1007.0
20260504110205 56 204 2.0 4.0 0.00 0.00 0.00 84 1007.5
20260504110153 56 238 4.0 4.0 0.00 0.00 0.00 84 1007.7
20260504100152 58 195 1.0 2.0 0.00 0.00 0.00 80 1007.8
20260504081651 60 163 4.0 7.0 0.00 0.00 0.00 79 1006.7
20260504081401 60 164 4.0 6.0 0.00 0.00 0.00 81 1007.2
20260504080640 60 177 2.0 4.0 0.00 0.00 0.00 82 1007.5
20260504080140 59 255 0.0 3.0 0.00 0.00 0.00 85 1007.5
20260504070140 57 212 0.0 0.0 0.00 0.00 0.00 87 1008.3
20260504060142 57 211 0.0 0.0 0.00 0.00 0.00 87 1008.4
20260504050115 59 241 0.0 0.0 0.00 0.00 0.00 84 1008.5
20260504045615 59 242 0.0 0.0 0.00 0.00 0.00 84 1008.6
20260504045115 59 242 0.0 1.0 0.00 0.00 0.00 85 1008.7
20260504044616 58 243 0.0 2.0 0.00 0.00 0.00 85 1008.5
20260504044336 58 243 1.0 2.0 0.00 0.00 0.00 85 1008.9
20260504043618 58 260 0.0 1.0 0.00 0.00 0.00 85 1008.8
20260504043116 58 226 0.0 2.0 0.00 0.00 0.00 84 1008.7
20260504043058 58 226 0.0 2.0 0.00 0.00 0.00 84 1008.9
20260504042116 59 226 0.0 3.0 0.00 0.00 0.00 83 1008.9
20260504041616 59 226 1.0 3.0 0.00 0.00 0.00 83 1008.9
20260504041115 59 226 0.0 2.0 0.00 0.00 0.00 82 1008.9
20260504040616 60 226 0.0 2.0 0.00 0.00 0.00 81 1009.3
20260504040116 60 226 1.0 1.0 0.00 0.00 0.00 80 1009.1
20260504035615 60 226 0.0 2.0 0.00 0.00 0.00 80 1009.2
20260504035116 61 226 0.0 2.0 0.00 0.00 0.00 79 1009.3
20260504034616 61 226 0.0 2.0 0.00 0.00 0.00 79 1009.2
20260504034115 61 226 1.0 2.0 0.00 0.00 0.00 79 1009.6
20260504033615 61 225 2.0 2.0 0.00 0.00 0.00 78 1009.3
20260504033116 62 279 0.0 0.0 0.00 0.00 0.00 76 1009.5
20260504032616 62 279 0.0 1.0 0.00 0.00 0.00 75 1009.4
20260504032116 63 279 0.0 2.0 0.00 0.00 0.00 74 1009.5
20260504031841 63 279 0.0 3.0 0.00 0.00 0.00 74 1009.7
20260504031115 63 279 1.0 3.0 0.00 0.00 0.00 74 1009.6
20260504030615 63 279 1.0 4.0 0.00 0.00 0.00 73 1009.6
20260504030116 63 280 0.0 6.0 0.00 0.00 0.00 73 1009.6
20260504025837 63 288 3.0 6.0 0.00 0.00 0.00 74 1009.6
20260504025333 63 288 1.0 3.0 0.00 0.00 0.00 73 1009.5
20260504024616 64 230 0.0 0.0 0.00 0.00 0.00 72 1009.4
20260504024115 64 230 0.0 0.0 0.00 0.00 0.00 72 1009.4
20260504023616 65 230 0.0 0.0 0.00 0.00 0.00 71 1009.1
20260504023116 65 230 0.0 0.0 0.00 0.00 0.00 70 1009.3
20260504022844 66 230 0.0 2.0 0.00 0.00 0.00 69 1009.2
20260504022115 66 230 0.0 3.0 0.00 0.00 0.00 69 1009.4
20260504021838 66 230 2.0 3.0 0.00 0.00 0.00 69 1009.5
20260504021116 65 277 2.0 3.0 0.00 0.00 0.00 71 1009.4
20260504020616 65 336 0.0 1.0 0.00 0.00 0.00 70 1008.8
20260504020342 65 336 0.0 4.0 0.00 0.00 0.00 69 1009.1
20260504015603 65 336 1.0 7.0 0.00 0.00 0.00 69 1009.2
20260504015103 65 16 4.0 7.0 0.00 0.00 0.00 69 1009.2
20260504014604 66 233 0.0 0.0 0.00 0.00 0.00 66 1009.0
20260504014319 66 233 0.0 0.0 0.00 0.00 0.00 66 1008.8
20260504013555 66 233 0.0 0.0 0.00 0.00 0.00 65 1009.1
20260504013054 67 233 0.0 0.0 0.00 0.00 0.00 64 1009.0
20260504012554 67 233 0.0 0.0 0.00 0.00 0.00 64 1009.1
20260504012312 67 233 0.0 0.0 0.00 0.00 0.00 63 1009.1
20260504011554 68 233 0.0 0.0 0.00 0.00 0.00 63 1009.1
20260504011054 68 233 0.0 0.0 0.00 0.00 0.00 62 1008.9
20260504010820 69 233 0.0 1.0 0.00 0.00 0.00 61 1008.8
20260504010054 69 233 0.0 1.0 0.00 0.00 0.00 60 1008.9
20260504005554 70 233 0.0 0.0 0.00 0.00 0.00 58 1008.9
20260504005053 70 233 0.0 0.0 0.00 0.00 0.00 57 1008.7
20260504004553 71 233 0.0 1.0 0.00 0.00 0.00 56 1009.1
20260504004054 71 233 0.0 1.0 0.00 0.00 0.00 55 1008.9
20260504003550 72 233 0.0 3.0 0.00 0.00 0.00 54 1009.0
20260504003051 72 230 2.0 3.0 0.00 0.00 0.00 54 1009.0
20260504002551 73 240 2.0 4.0 0.00 0.00 0.00 53 1008.7
20260504002050 74 219 0.0 4.0 0.00 0.00 0.00 51 1009.1
20260504001811 74 244 1.0 10.0 0.00 0.00 0.00 50 1008.8
20260504001050 74 249 4.0 10.0 0.00 0.00 0.00 49 1008.9
20260504000551 75 208 2.0 7.0 0.00 0.00 0.00 49 1008.8
20260504000051 75 347 2.0 9.0 0.00 0.00 0.00 51 1009.2
20260503235551 75 285 2.0 9.0 0.00 0.00 0.00 49 1009.0
20260503235051 75 180 2.0 9.0 0.00 0.00 0.00 49 1009.1
20260503234550 75 301 2.0 9.0 0.00 0.00 0.00 49 1009.2
20260503234050 76 302 2.0 9.0 0.00 0.00 0.00 48 1009.0
20260503233550 76 54 2.0 16.0 0.00 0.00 0.00 47 1009.2
20260503233053 76 300 2.0 16.0 0.00 0.00 0.00 47 1009.2
20260503232554 76 284 4.0 11.0 0.00 0.00 0.00 47 1009.1
20260503232053 76 200 5.0 14.0 0.00 0.00 0.00 47 1009.3
20260503231552 76 279 4.0 17.0 0.00 0.00 0.00 45 1009.4
20260503231050 77 280 10.0 17.0 0.00 0.00 0.00 45 1009.1
20260503230551 77 277 3.0 17.0 0.00 0.00 0.00 44 1009.1
20260503230050 78 314 5.0 16.0 0.00 0.00 0.00 44 1009.1
20260503225550 78 237 5.0 15.0 0.00 0.00 0.00 44 1009.2
20260503225050 78 243 2.0 15.0 0.00 0.00 0.00 46 1009.2
20260503224550 77 285 7.0 13.0 0.00 0.00 0.00 47 1009.2
20260503224050 77 264 7.0 13.0 0.00 0.00 0.00 46 1009.3
20260503223550 77 309 4.0 17.0 0.00 0.00 0.00 46 1009.4
20260503223051 77 283 4.0 17.0 0.00 0.00 0.00 46 1009.5
20260503222551 78 286 5.0 13.0 0.00 0.00 0.00 49 1009.1
20260503222050 76 287 3.0 9.0 0.00 0.00 0.00 47 1009.5
20260503222033 76 343 3.0 9.0 0.00 0.00 0.00 47 1009.3
20260503221051 76 276 2.0 13.0 0.00 0.00 0.00 46 1009.3
20260503220550 77 227 4.0 13.0 0.00 0.00 0.00 46 1009.2
20260503220050 78 300 3.0 11.0 0.00 0.00 0.00 43 1009.2
20260503215550 79 350 2.0 15.0 0.00 0.00 0.00 43 1009.4
20260503215051 78 299 8.0 15.0 0.00 0.00 0.00 46 1009.5
20260503215040 79 273 6.0 13.0 0.00 0.00 0.00 47 1009.7
20260503214050 78 275 4.0 13.0 0.00 0.00 0.00 44 1009.6
20260503213550 78 285 8.0 14.0 0.00 0.00 0.00 43 1009.6
20260503213140 78 276 5.0 18.0 0.00 0.00 0.00 43 1009.6
20260503212050 79 291 4.0 11.0 0.00 0.00 0.00 47 1009.6
20260503211550 79 287 7.0 16.0 0.00 0.00 0.00 44 1009.8
20260503211050 78 280 2.0 18.0 0.00 0.00 0.00 44 1009.7
20260503210551 78 258 4.0 18.0 0.00 0.00 0.00 44 1009.7
20260503210051 78 296 9.0 17.0 0.00 0.00 0.00 46 1009.6
20260503205551 78 242 6.0 18.0 0.00 0.00 0.00 44 1010.0
20260503205051 79 238 3.0 18.0 0.00 0.00 0.00 44 1009.6
20260503204811 78 236 6.0 19.0 0.00 0.00 0.00 43 1009.8
20260503204051 78 277 3.0 19.0 0.00 0.00 0.00 42 1010.2
20260503203551 79 270 8.0 14.0 0.00 0.00 0.00 45 1009.9
20260503203051 78 148 2.0 17.0 0.00 0.00 0.00 43 1010.0
20260503202550 78 224 10.0 17.0 0.00 0.00 0.00 42 1010.4
20260503202050 78 205 8.0 17.0 0.00 0.00 0.00 44 1010.6
20260503201550 77 217 9.0 19.0 0.00 0.00 0.00 44 1010.8
20260503201050 78 118 9.0 27.0 0.00 0.00 0.00 44 1010.6
20260503200550 77 112 13.0 27.0 0.00 0.00 0.00 47 1010.7
20260503200315 77 264 13.0 21.0 0.00 0.00 0.00 45 1010.8
20260503195551 77 195 9.0 19.0 0.00 0.00 0.00 44 1010.7
20260503195051 76 217 12.0 21.0 0.00 0.00 0.00 45 1010.8
20260503194549 76 265 9.0 21.0 0.00 0.00 0.00 44 1010.8
20260503194047 76 270 8.0 25.0 0.00 0.00 0.00 44 1011.2
20260503193546 76 217 9.0 25.0 0.00 0.00 0.00 43 1010.9
20260503193046 76 222 17.0 23.0 0.00 0.00 0.00 46 1011.0
20260503192809 75 229 10.0 19.0 0.00 0.00 0.00 44 1011.0
20260503192309 75 257 9.0 26.0 0.00 0.00 0.00 45 1011.0